Temperature
6 6 6 6 6 6 6 6 6 6 6 6 6 6 5 5 5 5 5 6 6 6 6 6 6 6 5 5 5 5 5 5 5 5 5 5 4 4
6 6 6 6 6 6 6 6 5 5 5 6 5 5 5 5 5 5 5 5 5 5 5 5 5 5 5 5 5 5 5 4 4 4 4 4 4 4
5 5 5 5 5 5 5 5 5 5 5 5 5 5 5 5 5 4 4 5 5 5 5 5 5 5 5 4 4 4 4 4 4 4 4 4 3 3
5 5 5 5 5 5 5 5 5 5 5 5 5 5 4 4 4 4 4 4 4 4 4 4 4 4 4 4 4 4 4 3 3 3 3 3 3 3
5 5 5 5 5 5 5 4 4 4 4 4 4 4 4 4 4 4 4 4 4 4 4 4 4 3 3 3 3 3 3 3 3 3 3 2 2 2
5 5 4 4 4 4 4 4 4 4 4 4 4 4 4 3 3 3 3 3 3 3 3 3 3 3 3 3 3 3 3 2 2 2 2 2 2 2
4 4 4 4 4 4 4 4 4 3 3 3 3 3 3 3 3 2 2 3 3 2 3 3 3 2 2 2 2 2 2 2 2 1 1 1 1 1
4 4 3 3 3 3 3 3 3 3 3 3 3 3 3 3 2 2 2 2 2 2 2 2 2 2 2 2 1 1 1 1 1 1 1 1 1 1
3 3 3 3 3 3 3 2 2 2 2 2 2 2 2 2 2 2 1 1 1 1 1 1 2 1 1 1 1 1 1 0 0 0 0 0 0 0
3 3 3 3 2 2 2 2 2 2 2 2 2 2 2 1 1 1 1 1 1 1 0 0 1 1 1 1 0 0 -0 -0 -0 -1 -1 -1 -0 -0
2 2 2 2 2 2 2 2 1 1 1 1 1 1 1 1 1 1 0 -0 -0 0 0 -1 -0 -0 -0 0 -0 -0 -1 -1 -1 -1 -1 -1 -1 -1
2 2 2 2 1 1 1 1 1 1 1 1 1 1 1 1 0 0 -0 -0 -1 -1 -1 -1 -1 -2 -2 -1 -1 -1 -1 -1 -1 -1 -1 -1 -1 -1
1 1 1 1 1 1 1 0 0 0 0 0 0 0 0 0 -0 -0 -1 -1 -1 -1 -1 -2 -2 -3 -3 -3 -2 -2 -2 -2 -2 -2 -2 -2 -2 -2
1 1 1 0 0 0 -0 -0 -0 -0 -0 -0 -0 -0 -0 -0 -0 -1 -1 -1 -2 -2 -2 -3 -3 -3 -3 -3 -3 -2 -2 -2 -2 -2 -2 -2 -2 -2
0 0 0 -0 -0 -0 -0 -0 -1 -1 -1 -1 -1 -1 -1 -1 -1 -1 -1 -2 -2 -2 -2 -3 -3 -3 -3 -4 -4 -3 -3 -3 -3 -3 -3 -3 -2 -2
-0 -0 -0 -1 -1 -1 -1 -1 -1 -1 -1 -1 -1 -1 -1 -1 -2 -2 -2 -3 -3 -2 -3 -3 -3 -4 -4 -4 -4 -4 -4 -4 -3 -3 -3 -3 -3 -3
-0 -1 -1 -1 -1 -1 -1 -1 -2 -2 -2 -2 -2 -2 -2 -2 -2 -3 -3 -3 -4 -3 -3 -3 -4 -4 -4 -4 -4 -4 -4 -4 -4 -4 -4 -4 -3 -4
-1 -1 -1 -1 -2 -2 -2 -2 -2 -2 -2 -2 -2 -3 -3 -3 -3 -3 -4 -4 -4 -4 -4 -4 -4 -4 -4 -4 -4 -4 -4 -4 -4 -5 -5 -5 -4 -4
-2 -2 -2 -2 -2 -2 -2 -2 -3 -3 -3 -3 -3 -3 -3 -4 -4 -4 -5 -5 -5 -5 -5 -5 -5 -5 -5 -5 -5 -5 -5 -5 -5 -5 -5 -5 -5 -5
-2 -2 -2 -2 -3 -3 -3 -3 -3 -3 -3 -3 -4 -4 -4 -4 -5 -5 -5 -5 -5 -5 -5 -5 -5 -6 -6 -6 -6 -5 -5 -6 -6 -6 -6 -5 -5 -5
-3 -3 -3 -3 -3 -3 -3 -3 -4 -4 -4 -4 -4 -5 -5 -5 -5 -5 -6 -6 -6 -6 -6 -6 -6 -6 -6 -6 -6 -6 -5 -6 -6 -6 -6 -6 -6 -6
-3 -4 -4 -4 -4 -4 -4 -4 -4 -4 -4 -5 -5 -5 -6 -6 -6 -6 -6 -6 -6 -6 -6 -6 -6 -6 -6 -6 -6 -6 -6 -6 -6 -6 -6 -7 -7 -7
-4 -4 -4 -4 -4 -4 -5 -5 -5 -5 -5 -5 -6 -6 -6 -6 -6 -6 -6 -6 -7 -7 -7 -7 -7 -7 -7 -7 -7 -7 -7 -6 -6 -6 -6 -6 -7 -7
Wind_Speed
5 4 3 2 2 2 2 3 4 3 4 3 2 2 3 3 4 4 5 6 7 8 8 8 8 8 9 10 10 11 11 11 11 11 11 11 12 12
4 5 4 3 3 2 3 2 2 3 3 3 3 2 3 3 4 5 6 7 8 8 8 9 9 9 9 10 10 11 11 11 11 10 11 12 12 12
5 6 6 4 4 3 3 2 2 2 3 2 2 2 2 2 2 4 5 6 7 8 8 9 9 9 9 9 9 10 10 10 10 11 11 12 13 13
7 6 6 4 5 4 4 4 3 3 3 3 2 2 2 2 2 2 4 5 6 7 8 8 8 8 8 9 9 9 9 10 10 11 11 12 13 13
8 8 7 6 5 4 5 4 3 3 2 3 3 2 2 1 1 2 3 3 5 6 7 7 7 8 8 9 10 10 10 10 11 11 11 12 13 14
7 7 7 8 7 7 5 5 4 3 3 2 2 2 2 1 1 2 3 2 3 5 5 5 6 9 9 9 10 11 10 11 11 11 12 12 13 14
5 6 6 7 8 7 6 6 6 4 3 2 2 2 2 2 2 2 3 3 3 2 2 3 5 6 8 10 10 11 11 11 12 12 13 13 13 14
6 5 5 5 6 7 8 8 8 6 5 4 3 4 4 4 3 2 2 2 4 2 2 4 3 4 7 8 10 11 12 12 12 12 13 13 13 14
6 5 4 4 5 5 5 6 6 7 8 6 5 6 5 5 4 3 4 4 5 3 2 4 3 4 6 9 11 11 11 11 12 12 13 13 13 14
6 6 6 5 5 5 5 4 4 5 6 5 6 6 5 5 6 5 4 3 3 3 2 4 3 4 5 7 10 10 10 10 11 12 13 13 13 14
5 5 5 5 7 6 5 4 4 3 4 5 6 5 6 6 5 2 2 2 4 3 2 3 3 3 4 4 7 8 9 10 11 13 13 13 13 13
3 4 5 6 7 7 6 5 5 4 2 2 2 3 2 4 5 5 4 3 3 3 2 2 2 2 4 3 3 6 7 10 12 13 13 12 12 9
3 3 3 5 6 6 5 5 6 4 3 2 1 1 1 1 2 3 4 4 4 4 3 2 2 2 3 4 4 4 5 5 8 9 11 12 12 10
3 3 3 5 5 5 4 4 4 2 2 2 1 2 2 2 2 2 3 4 5 6 6 4 3 4 4 5 5 3 4 6 6 6 7 10 11 12
3 4 4 4 3 3 3 4 3 2 2 2 2 3 2 2 1 1 1 2 4 5 7 7 5 4 4 5 5 4 5 4 4 4 5 6 6 7
3 3 3 3 2 2 2 2 2 3 3 3 3 2 1 1 1 1 1 2 2 3 4 6 7 5 4 5 6 7 5 4 4 4 5 6 7 7
3 3 2 2 2 1 1 1 1 2 1 1 2 1 1 1 2 1 1 2 2 4 4 3 4 6 6 5 5 6 6 5 5 5 5 6 6 6
4 3 3 3 3 3 2 2 2 2 2 2 2 2 2 2 2 2 2 2 4 4 4 3 2 2 2 4 7 6 5 4 4 4 4 5 6 6
3 3 3 3 3 3 3 3 3 2 2 2 2 2 2 2 2 3 3 3 4 4 4 3 2 2 4 6 4 5 4 4 4 5 4 4 6 7
3 3 3 3 3 3 3 3 3 2 2 2 3 3 3 3 3 3 3 4 4 4 4 3 3 4 5 5 4 4 6 5 4 5 5 5 5 9
2 2 3 3 3 3 3 3 3 3 3 3 3 3 3 3 3 4 4 5 5 4 5 5 5 5 2 1 3 4 4 6 7 5 5 5 5 5
2 3 3 3 3 3 3 3 3 3 3 3 3 3 3 3 4 5 4 4 4 5 5 5 3 2 2 3 5 5 5 6 7 9 9 8 4 4
3 3 3 3 3 3 3 3 4 3 3 4 4 4 3 3 4 4 4 5 4 4 4 4 3 2 3 3 4 5 6 6 5 5 6 9 11 13
Wind_Direction
188 187 189 189 185 180 171 169 166 204 239 237 237 242 249 255 285 287 278 276 274 274 276 279 284 285 286 288 289 290 292 291 285 285 289 291 290 292
186 185 192 188 184 182 179 182 178 183 225 231 231 250 244 256 283 285 285 287 278 275 275 279 280 278 280 283 286 289 289 290 285 285 286 289 289 288
190 191 196 186 186 188 179 178 183 176 215 257 250 262 237 248 288 284 288 288 285 281 278 279 277 277 277 280 285 288 287 285 285 287 288 288 290 290
195 193 198 191 187 189 187 190 196 191 193 239 251 247 250 246 241 266 284 285 287 285 286 287 282 281 281 284 285 289 290 289 288 288 288 290 290 290
197 197 199 189 197 198 193 194 197 200 191 213 249 253 257 253 265 277 276 280 291 294 290 287 288 290 289 287 286 287 287 288 289 288 287 288 288 288
201 201 199 198 201 198 199 198 194 191 190 205 241 251 254 259 224 262 290 285 290 294 287 288 294 295 291 289 288 287 284 284 285 287 287 287 287 287
202 202 203 207 208 203 202 196 187 191 195 216 235 246 250 244 238 242 270 293 286 255 278 284 288 291 292 288 284 281 280 281 283 287 288 287 285 285
198 202 206 207 214 217 215 206 198 196 204 211 229 236 244 236 226 239 258 285 282 239 264 286 263 270 276 280 280 278 279 281 284 287 290 291 288 286
197 197 205 211 209 206 216 220 222 226 220 209 220 232 230 220 210 230 237 248 260 249 250 273 266 269 274 279 283 282 279 282 287 290 290 292 291 288
197 198 199 202 204 202 200 212 225 233 232 221 219 229 229 216 209 218 228 261 276 260 213 255 266 270 281 277 280 282 287 290 290 292 293 293 293 291
196 197 197 201 215 206 195 207 231 253 251 240 244 245 241 228 209 189 203 248 281 274 221 230 262 285 282 271 270 278 287 291 295 297 298 296 295 294
192 198 208 211 215 208 197 199 220 237 223 236 264 261 240 220 217 207 201 222 260 268 228 225 254 292 291 272 265 276 282 287 293 296 297 295 296 296
193 202 212 215 217 219 214 205 220 216 194 193 215 243 248 231 222 213 208 211 234 250 227 221 252 255 256 283 285 267 261 273 285 289 293 295 296 294
198 205 210 213 219 221 221 217 208 187 169 177 200 232 241 249 244 230 233 237 242 243 234 223 240 244 260 277 282 283 277 271 271 276 282 294 295 294
202 209 210 207 202 207 215 202 176 165 176 195 221 237 238 235 233 265 279 270 278 264 247 240 233 245 248 260 271 279 293 286 266 274 283 286 285 290
192 183 176 167 168 187 189 185 181 187 194 212 230 235 234 234 235 238 261 283 293 294 273 253 241 234 252 259 264 274 273 273 288 289 294 293 288 279
167 147 149 160 168 173 187 201 197 187 207 211 210 231 250 258 261 256 250 266 268 275 283 277 264 255 242 244 262 266 270 275 278 289 300 300 294 287
163 169 182 186 191 196 203 216 217 212 211 209 212 223 239 246 262 265 252 254 267 271 273 271 282 306 303 267 236 255 266 274 285 290 291 293 295 298
177 185 194 197 200 203 207 212 223 225 211 207 218 228 233 242 247 255 261 270 273 274 273 266 251 254 278 290 273 230 246 280 293 293 287 280 286 295
181 190 199 201 203 207 210 216 220 218 218 221 226 231 233 238 245 254 258 265 275 282 284 275 250 237 243 264 275 278 261 262 276 284 290 290 287 291
194 198 202 204 207 209 212 216 216 219 226 229 230 234 235 235 247 252 257 272 276 274 274 273 264 268 260 263 279 282 280 271 273 276 288 297 301 301
202 207 212 212 210 210 212 213 219 225 227 232 235 237 238 237 243 250 256 264 268 270 273 279 282 269 225 245 269 282 294 304 301 298 284 269 270 277
212 213 217 217 215 212 214 219 224 232 231 230 231 234 233 243 249 250 255 260 266 271 278 285 284 270 259 255 268 280 288 300 311 315 306 296 284 278
Height
1498 1500 1502 1503 1505 1506 1507 1509 1510 1509 1509 1510 1511 1512 1512 1513 1513 1513 1513 1513 1514 1513 1513 1513 1513 1512 1511 1511 1511 1510 1509 1508 1507 1506 1506 1505 1504 1503
1493 1496 1498 1499 1501 1502 1503 1505 1506 1506 1506 1506 1507 1508 1508 1509 1509 1509 1508 1509 1509 1509 1508 1508 1508 1507 1506 1506 1505 1504 1503 1502 1501 1500 1500 1499 1498 1497
1489 1491 1493 1495 1496 1498 1499 1500 1502 1502 1502 1502 1503 1504 1504 1504 1504 1504 1504 1504 1504 1504 1503 1503 1503 1502 1502 1501 1500 1499 1498 1497 1496 1495 1494 1493 1493 1492
1484 1487 1489 1490 1492 1493 1495 1496 1497 1498 1499 1499 1499 1499 1499 1500 1500 1499 1500 1499 1499 1499 1498 1498 1497 1497 1496 1496 1495 1494 1492 1491 1490 1489 1488 1488 1487 1486
1480 1482 1484 1486 1487 1489 1490 1491 1492 1494 1494 1495 1495 1495 1495 1495 1494 1495 1495 1494 1494 1494 1493 1493 1492 1492 1491 1490 1489 1488 1487 1485 1484 1483 1482 1481 1481 1480
1475 1477 1479 1481 1482 1484 1485 1486 1487 1489 1489 1490 1490 1490 1490 1490 1490 1489 1489 1489 1489 1489 1488 1487 1487 1486 1486 1484 1483 1482 1481 1480 1479 1477 1476 1475 1474 1473
1470 1472 1474 1476 1478 1479 1480 1481 1482 1483 1484 1485 1485 1485 1485 1485 1484 1484 1484 1483 1483 1483 1482 1482 1482 1481 1480 1479 1477 1476 1475 1474 1472 1471 1470 1469 1468 1467
1465 1467 1469 1471 1473 1474 1476 1477 1478 1479 1479 1480 1480 1479 1480 1480 1479 1479 1479 1477 1476 1478 1477 1476 1476 1474 1474 1473 1471 1470 1469 1468 1466 1465 1463 1462 1461 1460
1461 1463 1464 1466 1468 1469 1471 1472 1472 1473 1475 1475 1475 1474 1474 1475 1474 1474 1474 1473 1472 1472 1471 1469 1469 1468 1468 1466 1465 1464 1463 1461 1460 1458 1457 1455 1454 1453
1456 1458 1459 1461 1462 1464 1465 1466 1467 1468 1469 1469 1470 1469 1470 1470 1469 1469 1468 1468 1467 1467 1466 1464 1462 1461 1461 1460 1459 1458 1457 1455 1454 1452 1450 1449 1448 1447
1451 1453 1454 1456 1458 1459 1460 1461 1462 1463 1464 1464 1465 1464 1465 1464 1464 1464 1463 1462 1460 1460 1460 1459 1456 1455 1453 1453 1452 1451 1450 1449 1447 1446 1444 1443 1441 1440
1447 1448 1450 1451 1453 1454 1455 1456 1456 1457 1458 1459 1459 1459 1459 1459 1459 1459 1458 1458 1456 1455 1454 1454 1451 1450 1447 1445 1445 1445 1444 1443 1441 1440 1438 1436 1435 1433
1442 1444 1445 1447 1448 1450 1451 1451 1452 1453 1453 1454 1454 1454 1454 1454 1454 1454 1453 1453 1452 1450 1450 1449 1447 1445 1444 1440 1438 1438 1437 1436 1434 1433 1432 1430 1429 1427
1438 1440 1441 1443 1444 1445 1446 1447 1448 1448 1449 1449 1449 1449 1449 1449 1449 1448 1448 1448 1447 1446 1445 1445 1443 1441 1439 1436 1434 1432 1432 1430 1428 1427 1425 1424 1423 1421
1435 1436 1438 1439 1440 1441 1442 1443 1443 1444 1444 1444 1444 1444 1445 1444 1444 1443 1443 1442 1442 1441 1440 1439 1438 1436 1435 1432 1430 1427 1426 1424 1423 1421 1419 1417 1416 1414
1431 1433 1434 1435 1436 1437 1438 1438 1439 1439 1439 1439 1440 1440 1440 1439 1439 1438 1437 1436 1435 1434 1435 1434 1433 1431 1429 1428 1426 1423 1421 1419 1417 1416 1413 1412 1410 1409
1427 1428 1429 1431 1431 1432 1433 1433 1434 1435 1435 1435 1435 1435 1434 1434 1434 1433 1432 1431 1430 1428 1428 1428 1427 1426 1424 1423 1420 1419 1417 1415 1413 1411 1408 1406 1405 1404
1423 1423 1425 1426 1426 1427 1428 1429 1430 1430 1430 1431 1430 1430 1430 1429 1428 1428 1427 1426 1425 1424 1422 1422 1421 1419 1418 1417 1417 1414 1412 1410 1408 1406 1404 1401 1399 1398
1419 1419 1421 1421 1422 1423 1424 1425 1425 1426 1426 1426 1426 1426 1425 1425 1424 1423 1422 1422 1420 1419 1418 1417 1416 1415 1413 1411 1410 1410 1408 1405 1403 1401 1399 1397 1394 1392
1414 1415 1416 1418 1418 1419 1420 1420 1421 1421 1422 1421 1421 1421 1421 1420 1419 1419 1418 1417 1416 1414 1413 1413 1412 1411 1409 1408 1406 1404 1404 1402 1399 1396 1394 1392 1390 1388
1410 1411 1412 1413 1414 1415 1416 1416 1416 1417 1417 1417 1417 1417 1416 1416 1415 1415 1414 1413 1412 1410 1409 1408 1408 1407 1406 1404 1402 1400 1399 1398 1396 1393 1390 1388 1385 1382
1407 1408 1409 1409 1410 1411 1411 1411 1412 1412 1412 1412 1412 1412 1412 1412 1411 1410 1409 1408 1407 1406 1405 1404 1403 1403 1401 1400 1397 1395 1394 1393 1392 1390 1388 1386 1383 1378
1403 1404 1405 1405 1406 1406 1406 1407 1407 1408 1408 1408 1408 1407 1407 1407 1406 1406 1405 1404 1403 1402 1401 1400 1399 1398 1397 1396 1394 1392 1390 1388 1386 1384 1383 1382 1380 1377